Location: Unnamed
(51.8936°N, 11.0665°E)
Time: 02:00:02
(UTC+02:00)

UKube-1 - Pass Details

Date: 04 October 2021
Orbit: 611 x 618 km, 98.4° (Epoch: 18 October)

Event Time Altitude Azimuth Distance (km) Brightness Sun altitude
Rises 22:29:33 0° 13° (NNE) 2,894 ? -33.0°
Reaches altitude 10° 22:31:44 10° 11° (N) 1,986 ? -33.2°
Enters shadow 22:31:49 10° 11° (N) 1,956 ? -33.2°
